Time,TemperatureF,DewpointF,PressureIn,WindDirection,WindDirectionDegrees,WindSpeedMPH,WindSpeedGustMPH,Humidity,HourlyPrecipIn,Conditions,Clouds,dailyrainin,SolarRadiationWatts/m^2,SoftwareType,DateUTC
2013-05-03 00:01:00,50.0,20.0,-100.00,NNE,25,2.0,6.0,30,0.00,,,0.00,1.000000,,2013-05-03 07:01:00,
2013-05-03 00:11:00,50.0,20.0,-100.00,NNE,25,2.0,6.0,30,0.00,,,0.00,1.000000,,2013-05-03 07:11:00,
2013-05-03 00:21:00,50.0,20.0,-100.00,NNE,25,2.0,6.0,30,0.00,,,0.00,1.000000,,2013-05-03 07:21:00,
2013-05-03 00:42:00,48.0,21.0,-100.00,NNE,28,2.0,7.0,34,0.00,,,0.00,1.000000,,2013-05-03 07:42:00,
2013-05-03 00:52:00,48.0,21.0,-100.00,NNE,28,2.0,7.0,34,0.00,,,0.00,1.000000,,2013-05-03 07:52:00,
2013-05-03 01:01:00,48.0,21.0,-100.00,NNE,28,2.0,7.0,34,0.00,,,0.00,1.000000,,2013-05-03 08:01:00,
2013-05-03 01:11:00,48.0,21.0,-100.00,NNE,28,2.0,7.0,34,0.00,,,0.00,1.000000,,2013-05-03 08:11:00,
2013-05-03 01:21:00,48.0,21.0,-100.00,NNE,28,2.0,7.0,34,0.00,,,0.00,1.000000,,2013-05-03 08:21:00,
2013-05-03 01:52:00,47.0,21.0,-100.00,ENE,78,1.0,3.0,36,-99.99,,,-99.99,1.000000,,2013-05-03 08:52:00,
2013-05-03 02:53:00,49.0,23.0,-100.00,NW,304,1.0,3.0,36,-99.99,,,0.00,1.000000,,2013-05-03 09:53:00,
2013-05-03 03:52:00,47.0,23.0,-100.00,ESE,116,1.0,2.0,38,-99.99,,,0.00,1.000000,,2013-05-03 10:52:00,
2013-05-03 04:02:00,47.0,23.0,-100.00,ESE,116,1.0,2.0,38,-99.99,,,0.00,1.000000,,2013-05-03 11:02:00,
2013-05-03 04:52:00,48.0,22.0,-100.00,NW,316,1.0,3.0,35,-99.99,,,0.00,1.000000,,2013-05-03 11:52:00,
2013-05-03 05:42:00,47.0,21.0,-100.00,NE,46,1.0,4.0,36,-99.99,,,0.00,1.000000,,2013-05-03 12:42:00,
2013-05-03 05:52:00,47.0,21.0,-100.00,NE,46,1.0,4.0,36,-99.99,,,0.00,1.000000,,2013-05-03 12:52:00,
2013-05-03 06:52:00,44.0,22.0,-100.00,SE,130,1.0,3.0,42,-99.99,,,0.00,5.000000,,2013-05-03 13:52:00,
2013-05-03 07:52:00,50.0,27.0,-100.00,East,85,0.0,2.0,40,-99.99,,,0.00,83.000000,,2013-05-03 14:52:00,
2013-05-03 08:53:00,58.0,28.0,-100.00,ENE,63,2.0,4.0,31,-99.99,,,0.00,317.000000,,2013-05-03 15:53:00,
2013-05-03 09:42:00,61.0,29.0,-100.00,NE,39,3.0,9.0,29,-99.99,,,0.00,510.000000,,2013-05-03 16:42:00,
2013-05-03 09:52:00,61.0,29.0,-100.00,NE,39,3.0,9.0,29,-99.99,,,0.00,510.000000,,2013-05-03 16:52:00,
2013-05-03 10:22:00,61.0,29.0,-100.00,NE,39,3.0,9.0,29,-99.99,,,0.00,510.000000,,2013-05-03 17:22:00,
2013-05-03 10:42:00,64.0,27.0,-100.00,NE,49,4.0,12.0,25,0.00,,,0.00,682.000000,,2013-05-03 17:42:00,
2013-05-03 10:52:00,64.0,27.0,-100.00,NE,49,4.0,12.0,25,0.00,,,0.00,682.000000,,2013-05-03 17:52:00,
2013-05-03 11:01:00,64.0,27.0,-100.00,NE,49,4.0,12.0,25,0.00,,,0.00,682.000000,,2013-05-03 18:01:00,
2013-05-03 11:11:00,64.0,27.0,-100.00,NE,49,4.0,12.0,25,0.00,,,0.00,682.000000,,2013-05-03 18:11:00,
2013-05-03 11:21:00,64.0,27.0,-100.00,NE,49,4.0,12.0,25,0.00,,,0.00,682.000000,,2013-05-03 18:21:00,
2013-05-03 11:42:00,65.0,25.0,-100.00,NNW,339,5.0,11.0,22,0.00,,,0.00,817.000000,,2013-05-03 18:42:00,
2013-05-03 11:52:00,65.0,25.0,-100.00,NNW,339,5.0,11.0,22,0.00,,,0.00,817.000000,,2013-05-03 18:52:00,
2013-05-03 12:01:00,65.0,25.0,-100.00,NNW,339,5.0,11.0,22,0.00,,,0.00,817.000000,,2013-05-03 19:01:00,
2013-05-03 12:11:00,65.0,25.0,-100.00,NNW,339,5.0,11.0,22,0.00,,,0.00,817.000000,,2013-05-03 19:11:00,
2013-05-03 12:21:00,65.0,25.0,-100.00,NNW,339,5.0,11.0,22,0.00,,,0.00,817.000000,,2013-05-03 19:21:00,
2013-05-03 12:52:00,67.0,26.0,-100.00,North,9,5.0,13.0,21,0.00,,,0.00,911.000000,,2013-05-03 19:52:00,
2013-05-03 13:02:00,67.0,26.0,-100.00,North,9,5.0,13.0,21,0.00,,,0.00,911.000000,,2013-05-03 20:02:00,
2013-05-03 13:11:00,67.0,26.0,-100.00,North,9,5.0,13.0,21,0.00,,,0.00,911.000000,,2013-05-03 20:11:00,
2013-05-03 13:21:00,67.0,26.0,-100.00,North,9,5.0,13.0,21,0.00,,,0.00,911.000000,,2013-05-03 20:21:00,
2013-05-03 13:52:00,68.0,25.0,-100.00,North,357,6.0,15.0,20,0.00,,,0.00,947.000000,,2013-05-03 20:52:00,
2013-05-03 14:01:00,68.0,25.0,-100.00,North,357,6.0,15.0,20,0.00,,,0.00,947.000000,,2013-05-03 21:01:00,
2013-05-03 14:11:00,68.0,25.0,-100.00,North,357,6.0,15.0,20,0.00,,,0.00,947.000000,,2013-05-03 21:11:00,
2013-05-03 14:21:00,68.0,25.0,-100.00,North,357,6.0,15.0,20,0.00,,,0.00,947.000000,,2013-05-03 21:21:00,
2013-05-03 14:53:00,69.0,25.0,-100.00,North,10,5.0,14.0,19,0.00,,,0.00,933.000000,,2013-05-03 21:53:00,
2013-05-03 15:02:00,69.0,25.0,-100.00,North,10,5.0,14.0,19,0.00,,,0.00,933.000000,,2013-05-03 22:02:00,
2013-05-03 15:12:00,69.0,25.0,-100.00,North,10,5.0,14.0,19,0.00,,,0.00,933.000000,,2013-05-03 22:12:00,
2013-05-03 15:22:00,69.0,25.0,-100.00,North,10,5.0,14.0,19,0.00,,,0.00,933.000000,,2013-05-03 22:22:00,
2013-05-03 16:52:00,68.0,27.0,-100.00,NNE,18,6.0,13.0,21,-99.99,,,0.00,749.000000,,2013-05-03 23:52:00,
2013-05-03 17:01:00,68.0,27.0,-100.00,NNE,18,6.0,13.0,21,-99.99,,,0.00,749.000000,,2013-05-04 00:01:00,
2013-05-03 17:11:00,68.0,27.0,-100.00,NNE,18,6.0,13.0,21,-99.99,,,0.00,749.000000,,2013-05-04 00:11:00,
2013-05-03 17:22:00,68.0,27.0,-100.00,NNE,18,6.0,13.0,21,-99.99,,,0.00,749.000000,,2013-05-04 00:22:00,
2013-05-03 17:52:00,67.0,27.0,-100.00,North,356,4.0,13.0,22,0.00,,,0.00,592.000000,,2013-05-04 00:52:00,
2013-05-03 18:01:00,67.0,27.0,-100.00,North,356,4.0,13.0,22,0.00,,,0.00,592.000000,,2013-05-04 01:01:00,
2013-05-03 18:11:00,67.0,27.0,-100.00,North,356,4.0,13.0,22,0.00,,,0.00,592.000000,,2013-05-04 01:11:00,
2013-05-03 18:21:00,67.0,27.0,-100.00,North,356,4.0,13.0,22,0.00,,,0.00,592.000000,,2013-05-04 01:21:00,
2013-05-03 18:52:00,64.0,23.0,-100.00,NNE,14,4.0,17.0,21,0.00,,,0.00,410.000000,,2013-05-04 01:52:00,
2013-05-03 19:02:00,64.0,23.0,-100.00,NNE,14,4.0,17.0,21,0.00,,,0.00,410.000000,,2013-05-04 02:02:00,
2013-05-03 19:11:00,64.0,23.0,-100.00,NNE,14,4.0,17.0,21,0.00,,,0.00,410.000000,,2013-05-04 02:11:00,
2013-05-03 19:21:00,64.0,23.0,-100.00,NNE,14,4.0,17.0,21,0.00,,,0.00,410.000000,,2013-05-04 02:21:00,
2013-05-03 19:52:00,58.0,25.0,-100.00,NNE,18,4.0,15.0,28,0.00,,,0.00,179.000000,,2013-05-04 02:52:00,
2013-05-03 20:02:00,58.0,25.0,-100.00,NNE,18,4.0,15.0,28,0.00,,,0.00,179.000000,,2013-05-04 03:02:00,
2013-05-03 20:11:00,58.0,25.0,-100.00,NNE,18,4.0,15.0,28,0.00,,,0.00,179.000000,,2013-05-04 03:11:00,
2013-05-03 20:21:00,58.0,25.0,-100.00,NNE,18,4.0,15.0,28,0.00,,,0.00,179.000000,,2013-05-04 03:21:00,
2013-05-03 20:53:00,53.0,25.0,-100.00,SSE,148,3.0,10.0,33,0.00,,,0.00,16.000000,,2013-05-04 03:53:00,
2013-05-03 21:02:00,53.0,25.0,-100.00,SSE,148,3.0,10.0,33,0.00,,,0.00,16.000000,,2013-05-04 04:02:00,
2013-05-03 21:12:00,53.0,25.0,-100.00,SSE,148,3.0,10.0,33,0.00,,,0.00,16.000000,,2013-05-04 04:12:00,
2013-05-03 21:22:00,53.0,25.0,-100.00,SSE,148,3.0,10.0,33,0.00,,,0.00,16.000000,,2013-05-04 04:22:00,
2013-05-03 21:52:00,51.0,28.0,-100.00,SSW,197,2.0,8.0,41,0.00,,,0.00,1.000000,,2013-05-04 04:52:00,
2013-05-03 22:02:00,51.0,28.0,-100.00,SSW,197,2.0,8.0,41,0.00,,,0.00,1.000000,,2013-05-04 05:02:00,
2013-05-03 22:11:00,51.0,28.0,-100.00,SSW,197,2.0,8.0,41,0.00,,,0.00,1.000000,,2013-05-04 05:11:00,
2013-05-03 22:21:00,51.0,28.0,-100.00,SSW,197,2.0,8.0,41,0.00,,,0.00,1.000000,,2013-05-04 05:21:00,
2013-05-03 22:43:00,47.0,27.0,-100.00,NE,37,2.0,5.0,46,0.00,,,0.00,1.000000,,2013-05-04 05:43:00,
2013-05-03 22:52:00,47.0,27.0,-100.00,NE,37,2.0,5.0,46,0.00,,,0.00,1.000000,,2013-05-04 05:52:00,
2013-05-03 23:01:00,47.0,27.0,-100.00,NE,37,2.0,5.0,46,0.00,,,0.00,1.000000,,2013-05-04 06:01:00,
2013-05-03 23:11:00,47.0,27.0,-100.00,NE,37,2.0,5.0,46,0.00,,,0.00,1.000000,,2013-05-04 06:11:00,
2013-05-03 23:21:00,47.0,27.0,-100.00,NE,37,2.0,5.0,46,0.00,,,0.00,1.000000,,2013-05-04 06:21:00,
2013-05-03 23:52:00,46.0,28.0,-100.00,WSW,252,0.0,4.0,49,0.00,,,0.00,1.000000,,2013-05-04 06:52:00,